Terminal Aerodrome Forecast
Issued by NWS Shreveport, LA

Home | Current Version | Previous Version | Text Only | Print | Product List | Glossary On
Versions: 1 2 3 4 5 6 7 8 9 10 11 12 13 14 15
000
FTUS44 KSHV 211100 RRA
TAFTYR
TAF
KTYR 211141Z 2112/2212 18007KT P6SM OVC008
      TEMPO 2112/2114 BKN015
     FM211400 18010KT P6SM SCT025
     FM211600 18011G19KT P6SM FEW040
     FM220200 18009KT P6SM SCT250=

USA.gov is the U.S. government's official web portal to all federal, state and local government web resources and services.